Location: Unspecified
(51.5147°N, 7.4673°E)
Time: 12:48:42
(UTC+01:00)

Explorer 7 - Pass Details

Date: 16 February 2026
Orbit: 430 x 541 km, 50.2° (Epoch: 8 March)

Event Time Altitude Azimuth Distance (km) Brightness Sun altitude
Rises 19:57:03 0° 276° (W) 2,524 11.8 -20.8°
Reaches altitude 10° 19:59:11 10° 273° (W) 1,665 10.4 -21.1°
Maximum altitude 20:02:55 63° 192° (SSW) 560 6.8 -21.7°
Enters shadow 20:03:00 63° 185° (S) 561 6.7 -21.7°
